• In Uzbekistan
  • List of Countries
  • For 7 days
  • Water Temperature
  • Weather Map
  • Weather Widgets
  • user-avatar
    Login

    Hourly Weather Pontypridd

    Today, 22 February, Saturday

    Time Temperature Precipitation Wind Pressure Humidity
    00:00 +7°C° 0 mm 12 mps 752 mmHg 86%
    01:00 +7°C° 0.8 mm 13 mps 751 mmHg 88%
    02:00 +7°C° 0.8 mm 13 mps 750 mmHg 91%
    03:00 +6°C° 0.8 mm 14 mps 749 mmHg 93%
    04:00 +8°C° 0.4 mm 14 mps 749 mmHg 93%
    05:00 +8°C° 0.4 mm 14 mps 750 mmHg 93%
    06:00 +8°C° 0.4 mm 14 mps 750 mmHg 93%
    07:00 +8°C° 0.1 mm 13 mps 751 mmHg 89%
    08:00 +7°C° 0.1 mm 12 mps 751 mmHg 85%
    09:00 +7°C° 0.1 mm 12 mps 751 mmHg 81%
    10:00 +7°C° 0 mm 12 mps 752 mmHg 79%
    11:00 +7°C° 0 mm 12 mps 753 mmHg 76%
    12:00 +7°C° 0 mm 12 mps 754 mmHg 74%
    13:00 +7°C° 0 mm 12 mps 754 mmHg 74%
    14:00 +5°C° 0 mm 12 mps 754 mmHg 75%
    15:00 +5°C° 0 mm 12 mps 754 mmHg 75%
    16:00 +6°C° 0 mm 11 mps 754 mmHg 77%
    17:00 +6°C° 0 mm 11 mps 755 mmHg 79%
    18:00 +5°C° 0 mm 10 mps 755 mmHg 80%
    19:00 +5°C° 0 mm 9 mps 755 mmHg 82%
    20:00 +5°C° 0 mm 9 mps 755 mmHg 84%
    21:00 +5°C° 0 mm 8 mps 755 mmHg 86%
    22:00 +5°C° 0.4 mm 8 mps 755 mmHg 89%
    23:00 +5°C° 0.4 mm 8 mps 755 mmHg 91%

    Tomorrow, 23 February, Sunday

    Time Temperature Precipitation Wind Pressure Humidity
    00:00 +6°C° 0.4 mm 8 mps 754 mmHg 93%
    01:00 +6°C° 1.6 mm 8 mps 753 mmHg 95%
    02:00 +6°C° 1.6 mm 8 mps 751 mmHg 96%
    03:00 +6°C° 1.6 mm 8 mps 750 mmHg 97%
    04:00 +7°C° 0.6 mm 11 mps 749 mmHg 95%
    05:00 +8°C° 0.6 mm 13 mps 748 mmHg 93%
    06:00 +9°C° 0.6 mm 16 mps 748 mmHg 92%
    07:00 +9°C° 0.4 mm 15 mps 748 mmHg 92%
    08:00 +9°C° 0.4 mm 15 mps 749 mmHg 92%
    09:00 +9°C° 0.4 mm 14 mps 749 mmHg 92%
    10:00 +8°C° 0.1 mm 12 mps 750 mmHg 88%
    11:00 +8°C° 0.1 mm 11 mps 752 mmHg 84%
    12:00 +7°C° 0.1 mm 9 mps 753 mmHg 80%
    13:00 +6°C° 0 mm 8 mps 753 mmHg 77%
    14:00 +6°C° 0 mm 7 mps 754 mmHg 75%
    15:00 +5°C° 0 mm 6 mps 755 mmHg 73%
    16:00 +6°C° 0 mm 4 mps 756 mmHg 75%
    17:00 +5°C° 0 mm 3 mps 756 mmHg 78%
    18:00 +5°C° 0 mm 2 mps 757 mmHg 81%
    19:00 +5°C° 0 mm 2 mps 757 mmHg 80%
    20:00 +5°C° 0 mm 2 mps 757 mmHg 79%
    21:00 +5°C° 0 mm 2 mps 756 mmHg 78%
    22:00 +4°C° 0 mm 3 mps 756 mmHg 79%
    23:00 +4°C° 0 mm 4 mps 755 mmHg 81%

    Day after tomorrow, 24 February, Monday

    Time Temperature Precipitation Wind Pressure Humidity
    00:00 +3°C° 0 mm 6 mps 755 mmHg 82%
    01:00 +4°C° 0.3 mm 6 mps 753 mmHg 87%
    02:00 +5°C° 0.3 mm 6 mps 752 mmHg 92%
    03:00 +7°C° 0.3 mm 6 mps 751 mmHg 97%
    04:00 +6°C° 0 mm 7 mps 750 mmHg 96%
    05:00 +6°C° 0 mm 9 mps 749 mmHg 94%
    06:00 +7°C° 0 mm 10 mps 748 mmHg 92%
    07:00 +7°C° 0.3 mm 11 mps 747 mmHg 92%
    08:00 +7°C° 0.3 mm 12 mps 746 mmHg 93%
    09:00 +7°C° 0.3 mm 12 mps 746 mmHg 93%
    10:00 +7°C° 1.6 mm 12 mps 745 mmHg 92%
    11:00 +7°C° 1.6 mm 12 mps 745 mmHg 91%
    12:00 +7°C° 1.6 mm 12 mps 745 mmHg 90%
    13:00 +5°C° 0.1 mm 12 mps 745 mmHg 87%
    14:00 +5°C° 0.1 mm 12 mps 745 mmHg 83%
    15:00 +4°C° 0.1 mm 12 mps 745 mmHg 80%
    16:00 +3°C° 0 mm 11 mps 745 mmHg 78%
    17:00 +3°C° 0 mm 11 mps 745 mmHg 76%
    18:00 +2°C° 0 mm 11 mps 746 mmHg 73%
    19:00 +2°C° 0 mm 11 mps 746 mmHg 74%
    20:00 +2°C° 0 mm 10 mps 746 mmHg 75%
    21:00 +2°C° 0 mm 10 mps 746 mmHg 75%
    22:00 +2°C° 0.1 mm 10 mps 746 mmHg 76%
    23:00 +2°C° 0.1 mm 10 mps 746 mmHg 77%

    25 February, Tuesday

    Time Temperature Precipitation Wind Pressure Humidity
    00:00 +1°C° 0.1 mm 10 mps 746 mmHg 78%
    01:00 +1°C° 0.1 mm 10 mps 745 mmHg 77%
    02:00 +1°C° 0.1 mm 9 mps 745 mmHg 76%
    03:00 0°C° 0.1 mm 9 mps 745 mmHg 76%
    04:00 0°C° 0.1 mm 9 mps 745 mmHg 79%
    05:00 0°C° 0.1 mm 8 mps 744 mmHg 81%
    06:00 0°C° 0.1 mm 8 mps 744 mmHg 84%
    07:00 +1°C° 0.1 mm 8 mps 744 mmHg 81%
    08:00 +1°C° 0.1 mm 8 mps 744 mmHg 78%
    09:00 +1°C° 0.1 mm 8 mps 744 mmHg 74%
    10:00 +2°C° 0.2 mm 8 mps 743 mmHg 73%
    11:00 +3°C° 0.2 mm 9 mps 743 mmHg 71%
    12:00 +3°C° 0.2 mm 9 mps 743 mmHg 70%
    13:00 +3°C° 0.2 mm 9 mps 742 mmHg 72%
    14:00 +4°C° 0.2 mm 8 mps 741 mmHg 74%
    15:00 +4°C° 0.2 mm 8 mps 740 mmHg 76%
    16:00 +2°C° 0.6 mm 9 mps 740 mmHg 80%
    17:00 +1°C° 0.6 mm 10 mps 740 mmHg 83%
    18:00 -1°C° 0.6 mm 11 mps 740 mmHg 87%
    19:00 -2°C° 0.2 mm 11 mps 740 mmHg 84%
    20:00 -2°C° 0.2 mm 10 mps 740 mmHg 81%
    21:00 -3°C° 0.2 mm 10 mps 741 mmHg 79%
    22:00 -3°C° 0.2 mm 10 mps 741 mmHg 82%
    23:00 -3°C° 0.2 mm 10 mps 741 mmHg 85%

    26 February, Wednesday

    Time Temperature Precipitation Wind Pressure Humidity
    00:00 -4°C° 0.2 mm 10 mps 741 mmHg 88%
    01:00 -4°C° 0.1 mm 11 mps 742 mmHg 85%
    02:00 -3°C° 0.1 mm 11 mps 742 mmHg 82%
    03:00 -3°C° 0.1 mm 11 mps 743 mmHg 80%
    04:00 -3°C° 0 mm 10 mps 743 mmHg 80%
    05:00 -4°C° 0 mm 9 mps 744 mmHg 80%
    06:00 -4°C° 0 mm 8 mps 744 mmHg 80%
    07:00 -3°C° 0.1 mm 9 mps 745 mmHg 78%
    08:00 -2°C° 0.1 mm 10 mps 746 mmHg 75%
    09:00 0°C° 0.1 mm 10 mps 747 mmHg 73%
    10:00 +1°C° 0 mm 10 mps 748 mmHg 71%
    11:00 +1°C° 0 mm 10 mps 748 mmHg 68%
    12:00 +2°C° 0 mm 10 mps 749 mmHg 65%
    13:00 +2°C° 0 mm 9 mps 749 mmHg 65%
    14:00 +2°C° 0 mm 9 mps 750 mmHg 65%
    15:00 +2°C° 0 mm 8 mps 750 mmHg 65%
    16:00 +2°C° 0 mm 7 mps 750 mmHg 69%
    17:00 +1°C° 0 mm 6 mps 750 mmHg 72%
    18:00 0°C° 0 mm 5 mps 750 mmHg 76%
    19:00 0°C° 0 mm 4 mps 750 mmHg 76%
    20:00 0°C° 0 mm 4 mps 750 mmHg 77%
    21:00 0°C° 0 mm 4 mps 750 mmHg 77%
    22:00 0°C° 0.2 mm 5 mps 749 mmHg 81%
    23:00 0°C° 0.2 mm 5 mps 748 mmHg 85%

    27 February, Thursday

    Time Temperature Precipitation Wind Pressure Humidity
    00:00 -1°C° 0.2 mm 6 mps 747 mmHg 89%
    01:00 -1°C° 2.3 mm 7 mps 745 mmHg 92%
    02:00 -1°C° 2.3 mm 8 mps 743 mmHg 95%
    03:00 -1°C° 2.3 mm 8 mps 741 mmHg 98%
    04:00 0°C° 3 mm 8 mps 740 mmHg 98%
    05:00 +2°C° 3 mm 8 mps 738 mmHg 98%
    06:00 +4°C° 3 mm 7 mps 737 mmHg 98%
    07:00 +5°C° 1.1 mm 9 mps 737 mmHg 98%
    08:00 +6°C° 1.1 mm 11 mps 737 mmHg 97%
    09:00 +7°C° 1.1 mm 12 mps 737 mmHg 97%
    10:00 +8°C° 0.1 mm 13 mps 737 mmHg 94%
    11:00 +8°C° 0.1 mm 13 mps 738 mmHg 92%
    12:00 +8°C° 0.1 mm 13 mps 738 mmHg 89%
    13:00 +8°C° 0 mm 13 mps 738 mmHg 89%
    14:00 +7°C° 0 mm 13 mps 739 mmHg 88%
    15:00 +7°C° 0 mm 13 mps 739 mmHg 88%
    16:00 +7°C° 0 mm 12 mps 740 mmHg 88%
    17:00 +5°C° 0 mm 12 mps 740 mmHg 87%
    18:00 +6°C° 0 mm 11 mps 741 mmHg 87%
    19:00 +5°C° 0 mm 10 mps 741 mmHg 87%
    20:00 +5°C° 0 mm 8 mps 742 mmHg 86%
    21:00 +4°C° 0 mm 7 mps 743 mmHg 85%
    22:00 +4°C° 0 mm 7 mps 743 mmHg 85%
    23:00 +3°C° 0 mm 6 mps 743 mmHg 85%
    Show more